Location: Cuiry
(49.3858°N, 3.7708°E)
Time: 23:01:19
(UTC+00:00)

Cosmos 2218 Rocket - Pass Details

Date: 12 January 2026
Orbit: 955 x 1005 km, 82.9° (Epoch: 9 February)

Event Time Altitude Azimuth Distance (km) Brightness Sun altitude
Rises 17:42:49 0° 350° (N) 3,742 7.0 -14.5°
Reaches altitude 10° 17:45:22 10° 352° (N) 2,791 6.3 -14.9°
Maximum altitude 17:51:48 81° 80° (E) 1,024 4.0 -16.0°
Drops below altitude 10° 17:58:12 10° 168° (SSE) 2,767 6.4 -17.0°
Sets 18:00:43 0° 170° (S) 3,708 7.1 -17.4°
